Location: La Pernelle
(49.6188°N, 1.2999°W)
Time: 12:21:35
(UTC+00:00)

Cosmos 1954 Rocket - Pass Details

Date: 25 October 2021
Orbit: 751 x 782 km, 74.0° (Epoch: 26 November)

Event Time Altitude Azimuth Distance (km) Brightness Sun altitude
Rises 17:44:15 0° 344° (NNW) 3,236 7.3 -8.6°
Reaches altitude 10° 17:47:41 10° 7° (N) 2,313 6.3 -9.1°
Maximum altitude 17:50:43 15° 42° (NE) 1,972 5.7 -9.6°
Enters shadow 17:52:57 12° 70° (ENE) 2,167 5.7 -10.0°
